This demonstration page uses our WeatherBlox Daily Observations layout. Learn more.

38.89511, -77.03637

Hourly Observations for October 29, 2015

Temp ( °F °C ) Dew Point ( °F °C ) Humidity (%) Winds ( mph kmh ) Pressure ( in mb ) Visibility ( mi km ) Precip ( " mm )
12:46 am 00:46 Cloudy with Rain 70 21 66 19 88 88 W 22 35 29.65 1004 5 8.0467 0 0.0254
12:49 am 00:49 Cloudy with Heavy Rain 66 19 64 18 94 94 W 23 37 29.62 1003 2.5 4.02335 0.05 1.27
12:52 am 00:52 Cloudy with Heavy Rain 66 18.9 62 16.7 87 87 WSW 15 24 29.62 1003 1 1.60934 0.1 2.54
1:04 am 01:04 Cloudy with Light Rain 64 18 63 17 94 94 S 10 17 29.62 1003 9 14.48406 0 0
1:52 am 01:52 Mostly Cloudy 64 17.8 61 16.1 90 90 SSW 7 11 29.62 1003 10 16.0934 0.22 5.588
2:52 am 02:52 Mostly Cloudy 62 16.7 61 16.1 96 96 Calm 29.62 1003 10 16.0934 0 0
2:55 am 02:55 Mostly Cloudy 63 17 61 16 94 94 Calm 29.62 1003 10 16.0934 0 0
3:28 am 03:28 Cloudy 63 17 63 17 100 100 Calm 29.62 1003 10 16.0934 0 0
3:52 am 03:52 Mostly Cloudy 62 16.7 61 16.1 96 96 S 3 6 29.62 1003 10 16.0934 0 0
4:09 am 04:09 Cloudy 63 17 61 16 94 94 S 3 6 29.62 1003 10 16.0934 0 0
4:49 am 04:49 Cloudy 64 18 63 17 94 94 S 5 7 29.62 1003 10 16.0934 0 0
4:52 am 04:52 Cloudy 64 17.8 62 16.7 93 93 S 5 7 29.61 1003 10 16.0934 0 0
5:27 am 05:27 Cloudy 64 18 63 17 94 94 VRB 5 7 29.62 1003 10 16.0934 0 0
5:52 am 05:52 Cloudy 65 18.3 63 17.2 93 93 SW 6 9 29.62 1003 10 16.0934 0 0
6:52 am 06:52 Cloudy 64 17.8 63 17.2 96 96 SSW 6 9 29.65 1004 10 16.0934 0 0
7:37 am 07:37 Partly Cloudy 63 17 63 17 100 100 S 5 7 29.65 1004 10 16.0934 0 0
7:52 am 07:52 Partly Cloudy 62 16.7 61 16.1 96 96 S 6 9 29.66 1004 10 16.0934 0 0
8:52 am 08:52 Partly Cloudy with Mist and Fog 63 17.2 62 16.7 97 97 S 7 11 29.69 1005 6 9.65604 0 0
9:52 am 09:52 Mostly Cloudy 67 19.4 61 16.1 81 81 SW 9 15 29.7 1006 10 16.0934 0 0
10:52 am 10:52 Cloudy 71 21.7 60 15.6 68 68 WSW 13 20 29.71 1006 10 16.0934 0 0
11:52 am 11:52 Cloudy 71 21.7 57 13.9 61 61 NW 13 20 29.72 1006 10 16.0934 0 0
12:52 pm 12:52 Cloudy 70 21.1 52 11.1 53 53 WNW 14 22 29.71 1006 10 16.0934 0 0
1:52 pm 13:52 Cloudy 69 20.6 48 8.9 47 47 NNW 15 24 29.7 1006 10 16.0934 0 0
2:52 pm 14:52 Mostly Cloudy 70 21 46 8 43 43 WNW 8 13 29.68 1005 10 16.0934 0 0
3:52 pm 15:52 Cloudy 69 20.6 46 7.8 44 44 VRB 5 7 29.69 1006 10 16.0934 0 0
4:52 pm 16:52 Mostly Cloudy 68 20 46 7.8 45 45 WSW 8 13 29.7 1006 10 16.0934 0 0
5:52 pm 17:52 Mostly Cloudy 67 19.4 45 7.2 45 45 W 3 6 29.7 1006 10 16.0934 0 0
6:52 pm 18:52 Mostly Cloudy 66 18.9 41 5 40 40 W 7 11 29.73 1007 10 16.0934 0 0
7:52 pm 19:52 Mostly Cloudy 65 18.3 43 6.1 45 45 WNW 5 7 29.76 1008 10 16.0934 0 0
8:52 pm 20:52 Mostly Cloudy 63 17.2 43 6.1 48 48 WSW 3 6 29.78 1008 10 16.0934 0 0
9:52 pm 21:52 Cloudy 59 15 46 7.8 62 62 Calm 29.8 1009 10 16.0934 0 0
10:52 pm 22:52 Cloudy 61 16.1 39 3.9 44 44 Calm 29.82 1010 10 16.0934 0 0
11:52 pm 23:52 Cloudy 59 15 40 4.4 49 49 NNW 7 11 29.84 1010 10 16.0934 0 0

Powered by AerisWeather